Alamogordo, NM

1:56 AM MST on November 21, 2017 (GMT -0700)
Alamogordo-White Sands Regional

Weather History for KALM - January, 2014

Change the Weather History Date:

Sunday, January 5, 2014

  Actual Average Record
Temperature  
Mean Temperature 36 °F -  
Max Temperature 46 °F 54 °F 69 °F (1965)
Min Temperature 26 °F 27 °F 1 °F (2001)
Degree Days  
Heating Degree Days 29    
Moisture  
Dew Point -2 °F    
Average Humidity 21    
Maximum Humidity 41    
Minimum Humidity 9    
Precipitation  
Precipitation 0.00 in - - ()
Sea Level Pressure  
Sea Level Pressure 30.14 in    
Wind  
Wind Speed 13 mph (NNW)    
Max Wind Speed 20 mph    
Max Gust Speed 26 mph    
Visibility 10 miles    
Events      
Averages and records for this station are not official NWS values.
T = Trace of Precipitation, MM = Missing Value Source: NWS Daily Summary

Daily Weather History Graph

Daily Weather History Graph

Search for Another Location

Airport or City:

Trip Planner

Search our weather history database for the weather conditions in past years. The results will help you decide how hot, cold, wet, or windy it might be!

Date:

Astronomy

Jan. 05, 2014 Rise Set
Actual Time 7:07 AM MST 5:11 PM MST
Civil Twilight 6:40 AM MST 5:39 PM MST
Nautical Twilight 6:09 AM MST 6:09 PM MST
Astronomical Twilight 5:39 AM MST 6:39 PM MST
Moon 10:07 AM MST (1/5) 10:23 PM MST (1/5)
Length of Visible Light 10h 58m
Length of Day
10h 04m
Waxing Crescent, 25% of the Moon is Illuminated
Jan 5
Waxing Crescent
Jan 7
First Quarter
Jan 15
Full
Jan 23
Last Quarter
Jan 30
New

Hourly Weather History & Observations

Time (MST) Temp. Windchill Dew Point Humidity Pressure Visibility Wind Dir Wind Speed Gust Speed Precip Events Conditions
12:15 AM 41.0 °F 33.9 °F 17.6 °F 39% 29.99 in 10.0 mi North 12.7 mph - N/A   Clear
12:35 AM 41.0 °F 33.9 °F 17.6 °F 39% 30.00 in 10.0 mi North 12.7 mph - N/A   Clear
12:55 AM 41.0 °F 33.9 °F 15.8 °F 36% 30.01 in 10.0 mi North 12.7 mph - N/A   Clear
1:15 AM 39.2 °F 30.8 °F 15.8 °F 39% 30.02 in 10.0 mi North 15.0 mph - N/A   Clear
1:35 AM 39.2 °F 31.6 °F 15.8 °F 39% 30.03 in 10.0 mi North 12.7 mph - N/A   Clear
1:55 AM 37.4 °F 29.8 °F 14.0 °F 38% 30.04 in 10.0 mi NNW 11.5 mph - N/A   Clear
2:15 AM 37.4 °F 29.8 °F 14.0 °F 38% 30.03 in 10.0 mi NNW 11.5 mph - N/A   Clear
2:35 AM 37.4 °F 29.3 °F 14.0 °F 38% 30.03 in 10.0 mi NNW 12.7 mph - N/A   Clear
2:55 AM 33.8 °F 25.3 °F 12.2 °F 41% 30.04 in 10.0 mi NNW 11.5 mph - N/A   Clear
3:15 AM 32.0 °F 22.1 °F 10.4 °F 41% 30.04 in 10.0 mi NNW 13.8 mph - N/A   Clear
3:35 AM 32.0 °F 22.5 °F 8.6 °F 38% 30.05 in 10.0 mi NNW 12.7 mph - N/A   Clear
3:55 AM 32.0 °F 22.1 °F 6.8 °F 35% 30.05 in 10.0 mi NNW 13.8 mph - N/A   Clear
4:15 AM 32.0 °F 23.0 °F 5.0 °F 32% 30.05 in 10.0 mi NNW 11.5 mph - N/A   Clear
4:35 AM 30.2 °F 20.2 °F 5.0 °F 34% 30.06 in 10.0 mi NNW 12.7 mph - N/A   Clear
4:55 AM 28.4 °F 17.0 °F 3.2 °F 34% 30.07 in 10.0 mi NNW 15.0 mph - N/A   Clear
5:15 AM 30.2 °F 20.2 °F 1.4 °F 29% 30.07 in 10.0 mi North 12.7 mph - N/A   Clear
5:35 AM 32.0 °F 22.5 °F -0.4 °F 25% 30.08 in 10.0 mi North 12.7 mph - N/A   Clear
5:55 AM 30.2 °F 20.8 °F -0.4 °F 27% 30.09 in 10.0 mi North 11.5 mph - N/A   Clear
6:15 AM 28.4 °F 19.1 °F -0.4 °F 29% 30.10 in 10.0 mi North 10.4 mph - N/A   Clear
6:35 AM 28.4 °F 17.0 °F -0.4 °F 29% 30.11 in 10.0 mi NNW 15.0 mph - N/A   Clear
6:55 AM 28.4 °F 18.0 °F -0.4 °F 29% 30.12 in 10.0 mi NNW 12.7 mph - N/A   Clear
7:15 AM 28.4 °F 17.5 °F -2.2 °F 27% 30.13 in 10.0 mi NNW 13.8 mph - N/A   Clear
7:35 AM 26.6 °F 16.8 °F -0.4 °F 31% 30.14 in 10.0 mi NNW 10.4 mph - N/A   Clear
7:55 AM 28.4 °F 19.1 °F -2.2 °F 27% 30.16 in 10.0 mi NNW 10.4 mph - N/A   Clear
8:15 AM 30.2 °F 21.3 °F -0.4 °F 27% 30.18 in 10.0 mi NW 10.4 mph - N/A   Clear
8:35 AM 32.0 °F 23.6 °F -2.2 °F 23% 30.19 in 10.0 mi NNW 10.4 mph - N/A   Clear
8:55 AM 35.6 °F 27.1 °F -2.2 °F 20% 30.20 in 10.0 mi NNW 12.7 mph - N/A   Clear
9:15 AM 41.0 °F 31.9 °F -11.2 °F 11% 30.21 in 10.0 mi North 19.6 mph 23.0 mph N/A   Clear
9:35 AM 42.8 °F 34.8 °F -9.4 °F 11% 30.22 in 10.0 mi North 17.3 mph - N/A   Clear
9:55 AM 44.6 °F 37.4 °F -13.0 °F 9% 30.22 in 10.0 mi North 16.1 mph 23.0 mph N/A   Clear
10:15 AM 44.6 °F 36.9 °F -13.0 °F 9% 30.22 in 10.0 mi North 18.4 mph 26.5 mph N/A   Clear
10:35 AM 44.6 °F 36.9 °F -11.2 °F 9% 30.22 in 10.0 mi North 18.4 mph 23.0 mph N/A   Clear
10:55 AM 44.6 °F 36.9 °F -11.2 °F 9% 30.22 in 10.0 mi North 18.4 mph 21.9 mph N/A   Clear
11:15 AM 44.6 °F 37.8 °F -9.4 °F 10% 30.21 in 10.0 mi North 15.0 mph 24.2 mph N/A   Clear
11:35 AM 44.6 °F 37.8 °F -9.4 °F 10% 30.20 in 10.0 mi North 15.0 mph 21.9 mph N/A   Clear
11:55 AM 44.6 °F 36.9 °F -9.4 °F 10% 30.19 in 10.0 mi North 18.4 mph 21.9 mph N/A   Clear
12:15 PM 44.6 °F 38.4 °F -7.6 °F 11% 30.18 in 10.0 mi NNW 12.7 mph 21.9 mph N/A   Clear
12:35 PM 46.4 °F 39.5 °F -7.6 °F 10% 30.17 in 10.0 mi NNW 17.3 mph 21.9 mph N/A   Clear
12:55 PM 46.4 °F 40.4 °F -7.6 °F 10% 30.16 in 10.0 mi North 13.8 mph 23.0 mph N/A   Clear
1:15 PM 46.4 °F 39.8 °F -9.4 °F 9% 30.16 in 10.0 mi NNW 16.1 mph 24.2 mph N/A   Clear
1:35 PM 46.4 °F 40.1 °F -7.6 °F 10% 30.15 in 10.0 mi NNW 15.0 mph 21.9 mph N/A   Clear
1:55 PM 46.4 °F 40.4 °F -7.6 °F 10% 30.15 in 10.0 mi North 13.8 mph 23.0 mph N/A   Clear
2:15 PM 46.4 °F 39.2 °F -7.6 °F 10% 30.15 in 10.0 mi North 18.4 mph 23.0 mph N/A   Clear
2:35 PM 46.4 °F 39.8 °F -7.6 °F 10% 30.15 in 10.0 mi NNW 16.1 mph 21.9 mph N/A   Clear
2:55 PM 46.4 °F 39.8 °F -7.6 °F 10% 30.15 in 10.0 mi NNW 16.1 mph 25.3 mph N/A   Clear
3:15 PM 46.4 °F 40.7 °F -9.4 °F 9% 30.15 in 10.0 mi North 12.7 mph 18.4 mph N/A   Clear
3:35 PM 46.4 °F 40.7 °F -9.4 °F 9% 30.15 in 10.0 mi NNW 12.7 mph 18.4 mph N/A   Clear
3:55 PM 46.4 °F 40.4 °F -9.4 °F 9% 30.15 in 10.0 mi North 13.8 mph - N/A   Clear
4:15 PM 46.4 °F 40.4 °F -9.4 °F 9% 30.16 in 10.0 mi North 13.8 mph - N/A   Clear
4:35 PM 44.6 °F 38.8 °F -9.4 °F 10% 30.15 in 10.0 mi North 11.5 mph - N/A   Clear
4:55 PM 42.8 °F 37.0 °F -7.6 °F 12% 30.16 in 10.0 mi North 10.4 mph - N/A   Clear
5:15 PM 41.0 °F 36.4 °F -7.6 °F 13% 30.17 in 10.0 mi NNW 6.9 mph - N/A   Clear
5:35 PM 39.2 °F 34.2 °F -7.6 °F 14% 30.18 in 10.0 mi North 6.9 mph - N/A   Clear
5:55 PM 37.4 °F 30.8 °F -5.8 °F 16% 30.19 in 10.0 mi North 9.2 mph - N/A   Clear
6:15 PM 37.4 °F 32.1 °F -5.8 °F 16% 30.19 in 10.0 mi North 6.9 mph - N/A   Clear
6:35 PM 35.6 °F 29.9 °F -4.0 °F 18% 30.20 in 10.0 mi NNW 6.9 mph - N/A   Clear
6:55 PM 32.0 °F 24.2 °F -4.0 °F 21% 30.21 in 10.0 mi WNW 9.2 mph - N/A   Clear
7:15 PM 32.0 °F 23.6 °F -4.0 °F 21% 30.22 in 10.0 mi NW 10.4 mph - N/A   Clear
7:35 PM 32.0 °F 24.8 °F -4.0 °F 21% 30.23 in 10.0 mi NW 8.1 mph - N/A   Clear
7:55 PM 32.0 °F 24.8 °F -4.0 °F 21% 30.23 in 10.0 mi NNW 8.1 mph - N/A   Clear
8:15 PM 32.0 °F 24.8 °F -4.0 °F 21% 30.24 in 10.0 mi North 8.1 mph - N/A   Clear